Tracking 17554 objects as of 6-February-2016
HD Live streaming from Space Station
objects crossing your sky now

INTELSAT 501

Track INTELSAT 501 now!
INTELSAT 501 is classified as:


NORAD ID: 12474
Int'l Code: 1981-050A
Perigee: 36,168.8 km
Apogee: 36,222.0 km
Inclination: 15.2 °
Period: 1,456.7 minutes
Semi major axis: 42566 km
RCS: 3.981 m2 (large)
Launch date: May 23, 1981
Source: International Telecommunications Satellite Organization (ITSO)
Launch site: AIR FORCE EASTERN TEST RANGE (AFETR)
Your satellite tracking list
Your tracking list is empty





NASA's NSSDC Master Catalog

Two Line Element Set (TLE):
1 12474U 81050A   16035.18066921 -.00000242 +00000-0 +00000-0 0  9999
2 12474 015.2319 357.5916 0006251 215.1677 324.6711 00.9885590810243
Source of the keplerian elements: AFSPC

N2YO: 296